CSAPA KSDF-KOWB

Flight info

Callsign CSAPA
Flight time N/A
Altitude 1500
Route VFR W
Aircraft C152/L-V/N

Departure

Time 2026-05-04 01:15
Airport Louisville Muhammad Ali International Airport (KSDF)

Arrival

Time N/A
Airport Owensboro Daviess County Airport (KOWB)
Time Latitude Longitude Altitude Speed Heading
2026-05-04 01:08 38.18138 -85.72412 504 ft 0 kts 345°
2026-05-04 01:11 38.18139 -85.72412 504 ft 0 kts 345°
2026-05-04 01:12 38.18172 -85.72424 504 ft 10 kts 345°
2026-05-04 01:12 38.18237 -85.72448 504 ft 3 kts 304°
2026-05-04 01:12 38.18232 -85.72492 504 ft 8 kts 256°
2026-05-04 01:12 38.18216 -85.72577 504 ft 12 kts 256°
2026-05-04 01:13 38.18194 -85.72695 504 ft 15 kts 256°
2026-05-04 01:13 38.18167 -85.72831 504 ft 16 kts 255°
2026-05-04 01:13 38.18163 -85.72850 504 ft 0 kts 255°
2026-05-04 01:13 38.18155 -85.72886 504 ft 14 kts 252°
2026-05-04 01:14 38.17978 -85.72878 504 ft 49 kts 165°
2026-05-04 01:14 38.17535 -85.72727 611 ft 71 kts 165°
2026-05-04 01:14 38.17225 -85.72626 787 ft 67 kts 165°
2026-05-04 01:14 38.16763 -85.72483 983 ft 70 kts 167°
2026-05-04 01:15 38.16236 -85.72348 1096 ft 86 kts 168°
2026-05-04 01:15 38.15645 -85.72179 1300 ft 87 kts 166°
2026-05-04 01:15 38.15056 -85.71994 1485 ft 89 kts 165°
2026-05-04 01:15 38.14416 -85.71773 1494 ft 99 kts 164°
2026-05-04 01:16 38.13749 -85.71524 1533 ft 101 kts 163°
2026-05-04 01:16 38.13063 -85.71298 1540 ft 102 kts 167°
2026-05-04 01:16 38.12358 -85.71119 1533 ft 104 kts 169°
2026-05-04 01:16 38.11644 -85.70950 1533 ft 104 kts 169°
2026-05-04 01:17 38.10937 -85.70783 1522 ft 105 kts 169°
2026-05-04 01:17 38.10221 -85.70599 1517 ft 105 kts 168°
2026-05-04 01:17 38.09503 -85.70399 1503 ft 105 kts 166°